Flag for U.S.A. Weather past 2 weeks in Mobile, Alabama, U.S.A.

Now
81 °F

Scattered clouds.


Feels Like: 81 °F
Forecast: 63 / 81 °F
Wind: 7 mph from Southwest

Location: Mobile Downtown Airport

Current Time: Mar 31, 2015 at 1:21:02 PM

Latest Report: Mar 31, 2015 at 12:53 PM


Visibility: 10 mi

Pressure: 30.11 "Hg

Humidity: 47%

Dew point: 59 °F

Location of MobileLocation

Historic Weather in Mobile — Graph

°F

Mobile temperature yesterday

Maximum temperature yesterday: 82 °F (at 12:53 PM)
Minimum temperature yesterday: 62 °F (at 7:03 AM)
Average temperature yesterday: 71 °F

Past Weeks' High & Low Weather Summary

 TemperatureHumidityPressure
High87 °F (Mar 17, 3:53 PM)94% (Mar 22, 4:53 AM)30.38 "Hg (Mar 22, 4:53 AM)
Low41 °F (Mar 28, 6:53 AM)23% (Mar 27, 4:53 PM)29.83 "Hg (Mar 26, 4:53 PM)
Average67 °F72%30.07 "Hg
* Reported Mar 16 11:53 AM — Mar 31 11:53 AM, Mobile, Weather by CustomWeather, © 2015

Note: Actual official high and low records may vary slightly from our data, if they occured in-between our weather recording intervals... More about our weather records

Advertising

Mobile weather history for previous 24 hours

 ConditionsComfort  
Time TempWeatherWind HumidityBarometerVisibility
11:53 AM
Tue, Mar 31
79 °FScattered clouds.9 mph52%30.14 "Hg10 mi
10:53 AM77 °FScattered clouds.8 mph58%30.16 "Hg10 mi
9:53 AM74 °FSunny.6 mph67%30.16 "Hg10 mi
8:53 AM70 °FSunny.7 mph76%30.14 "Hg10 mi
7:53 AM66 °FSunny.5 mph87%30.13 "Hg10 mi
6:53 AM65 °FClear.6 mph91%30.12 "Hg10 mi
5:53 AM65 °FClear.6 mph91%30.10 "Hg10 mi
4:53 AM65 °FClear.7 mph94%30.09 "Hg10 mi
3:53 AM66 °FClear.7 mph90%30.10 "Hg10 mi
2:53 AM67 °FClear.6 mph87%30.11 "Hg10 mi
1:53 AM67 °FClear.7 mph87%30.13 "Hg10 mi
12:53 AM67 °FClear.6 mph85%30.14 "Hg10 mi
11:53 PM
Mon, Mar 30
68 °FClear.6 mph82%30.15 "Hg10 mi
10:53 PM68 °FPassing clouds.5 mph82%30.16 "Hg10 mi
9:53 PM69 °FClear.6 mph81%30.16 "Hg10 mi
8:53 PM69 °FClear.7 mph79%30.15 "Hg10 mi
7:53 PM70 °FPassing clouds.6 mph76%30.13 "Hg10 mi
6:53 PM73 °FPassing clouds.7 mph66%30.12 "Hg10 mi
5:53 PM76 °FPassing clouds.9 mph62%30.12 "Hg10 mi
4:53 PM78 °FScattered clouds.12 mph56%30.12 "Hg10 mi
3:53 PM79 °FScattered clouds.12 mph54%30.14 "Hg10 mi
2:53 PM81 °FScattered clouds.9 mph51%30.16 "Hg10 mi
1:53 PM82 °FScattered clouds.6 mph40%30.19 "Hg10 mi
Weather by CustomWeather, © 2015

See weather overviewHow to use our weather pages